Sacramento / Mc Clellan, CA

10:31 PM PDT on May 28, 2017 (GMT -0700)
McClellan

Weather History for KMCC - April, 2013

Change the Weather History Date:

Friday, April 19, 2013

  Actual Average (KMHR) Record (KMHR)
Temperature  
Mean Temperature 64 °F -  
Max Temperature 80 °F 67 °F 87 °F (2009)
Min Temperature 48 °F 42 °F 37 °F (2003)
Degree Days  
Heating Degree Days 1    
Growing Degree Days 14 (Base 50)    
Moisture  
Dew Point 40 °F    
Average Humidity 42    
Maximum Humidity 71    
Minimum Humidity 23    
Precipitation  
Precipitation 0.00 in - - ()
Sea Level Pressure  
Sea Level Pressure 30.16 in    
Wind  
Wind Speed 4 mph (ESE)    
Max Wind Speed 8 mph    
Max Gust Speed -    
Visibility 10 miles    
Events      
Averages and records for this station are not official NWS values.
T = Trace of Precipitation, MM = Missing Value Source: NWS Daily Summary

Daily Weather History Graph

Daily Weather History Graph

Search for Another Location

Airport or City:

Trip Planner

Search our weather history database for the weather conditions in past years. The results will help you decide how hot, cold, wet, or windy it might be!

Date:

Astronomy

Apr. 19, 2013 Rise Set
Actual Time 6:23 AM PDT 7:46 PM PDT
Civil Twilight 5:55 AM PDT 8:14 PM PDT
Nautical Twilight 5:22 AM PDT 8:47 PM PDT
Astronomical Twilight 4:47 AM PDT 9:22 PM PDT
Moon 1:40 PM PDT (4/19) 2:37 AM PDT (4/19)
Length of Visible Light 14h 18m
Length of Day
13h 23m
Waxing Gibbous, 62% of the Moon is Illuminated
Apr 19
Waxing Gibbous
Apr 25
Full
May 2
Last Quarter
May 9
New
May 17
First Quarter

Hourly Weather History & Observations

Time (PDT) Temp. Dew Point Humidity Pressure Visibility Wind Dir Wind Speed Gust Speed Precip Events Conditions
12:05 AM 59.0 °F 35.6 °F 42% 30.21 in 10.0 mi East 3.5 mph - N/A   Clear
12:25 AM 57.2 °F 35.6 °F 44% 30.20 in 10.0 mi East 5.8 mph - N/A   Clear
12:45 AM 57.2 °F 35.6 °F 44% 30.21 in 10.0 mi East 6.9 mph - N/A   Clear
1:05 AM 57.2 °F 37.4 °F 48% 30.21 in 10.0 mi Calm Calm - N/A   Clear
1:25 AM 55.4 °F 37.4 °F 51% 30.20 in 10.0 mi East 3.5 mph - N/A   Clear
1:45 AM 55.4 °F 39.2 °F 54% 30.20 in 10.0 mi East 4.6 mph - N/A   Clear
2:05 AM 55.4 °F 39.2 °F 54% 30.20 in 10.0 mi East 4.6 mph - N/A   Clear
2:25 AM 55.4 °F 41.0 °F 58% 30.20 in 10.0 mi East 3.5 mph - N/A   Clear
2:45 AM 55.4 °F 41.0 °F 58% 30.19 in 10.0 mi East 4.6 mph - N/A   Clear
3:05 AM 53.6 °F 41.0 °F 62% 30.20 in 10.0 mi Calm Calm - N/A   Clear
3:25 AM 53.6 °F 39.2 °F 58% 30.20 in 10.0 mi SSE 5.8 mph - N/A   Clear
3:45 AM 50.0 °F 39.2 °F 66% 30.20 in 10.0 mi SE 3.5 mph - N/A   Clear
4:05 AM 50.0 °F 39.2 °F 66% 30.19 in 10.0 mi SE 4.6 mph - N/A   Clear
4:25 AM 51.8 °F 39.2 °F 62% 30.20 in 10.0 mi East 3.5 mph - N/A   Clear
4:45 AM 51.8 °F 39.2 °F 62% 30.20 in 10.0 mi SSE 3.5 mph - N/A   Clear
5:05 AM 50.0 °F 39.2 °F 66% 30.20 in 10.0 mi ESE 4.6 mph - N/A   Clear
5:25 AM 50.0 °F 39.2 °F 66% 30.20 in 10.0 mi Calm Calm - N/A   Clear
5:45 AM 50.0 °F 39.2 °F 66% 30.21 in 10.0 mi South 3.5 mph - N/A   Clear
6:05 AM 48.2 °F 39.2 °F 71% 30.22 in 10.0 mi South 5.8 mph - N/A   Clear
6:25 AM 48.2 °F 39.2 °F 71% 30.22 in 9.0 mi SE 5.8 mph - N/A   Clear
6:45 AM 50.0 °F 39.2 °F 66% 30.22 in 10.0 mi SE 3.5 mph - N/A   Clear
7:05 AM 50.0 °F 41.0 °F 71% 30.23 in 10.0 mi SE 5.8 mph - N/A   Clear
7:25 AM 53.6 °F 41.0 °F 62% 30.23 in 10.0 mi SE 5.8 mph - N/A   Clear
7:45 AM 53.6 °F 41.0 °F 62% 30.24 in 10.0 mi SE 6.9 mph - N/A   Clear
8:05 AM 55.4 °F 41.0 °F 58% 30.24 in 10.0 mi SE 6.9 mph - N/A   Clear
8:25 AM 57.2 °F 39.2 °F 51% 30.25 in 10.0 mi SE 5.8 mph - N/A   Clear
8:45 AM 59.0 °F 39.2 °F 48% 30.25 in 9.0 mi SSE 6.9 mph - N/A   Clear
9:05 AM 60.8 °F 39.2 °F 45% 30.25 in 10.0 mi SE 6.9 mph - N/A   Clear
9:25 AM 60.8 °F 39.2 °F 45% 30.25 in 10.0 mi ESE 6.9 mph - N/A   Clear
9:45 AM 64.4 °F 39.2 °F 40% 30.25 in 10.0 mi SE 5.8 mph - N/A   Clear
10:05 AM 64.4 °F 39.2 °F 40% 30.25 in 10.0 mi SSE 4.6 mph - N/A   Clear
10:25 AM 64.4 °F 39.2 °F 40% 30.25 in 10.0 mi SE 3.5 mph - N/A   Clear
10:45 AM 66.2 °F 39.2 °F 37% 30.25 in 9.0 mi SE 3.5 mph - N/A   Clear
11:05 AM 68.0 °F 39.2 °F 35% 30.24 in 10.0 mi SE 5.8 mph - N/A   Clear
11:25 AM 69.8 °F 39.2 °F 33% 30.24 in 10.0 mi SE 3.5 mph - N/A   Clear
11:45 AM 71.6 °F 41.0 °F 33% 30.23 in 10.0 mi South 5.8 mph - N/A   Clear
12:05 PM 73.4 °F 39.2 °F 29% 30.23 in 9.0 mi South 5.8 mph - N/A   Clear
12:25 PM 73.4 °F 39.2 °F 29% 30.22 in 9.0 mi South 3.5 mph - N/A   Clear
12:45 PM 75.2 °F 37.4 °F 25% 30.21 in 10.0 mi SSW 4.6 mph - N/A   Clear
1:05 PM 75.2 °F 37.4 °F 25% 30.19 in 10.0 mi East 3.5 mph - N/A   Clear
1:25 PM 75.2 °F 39.2 °F 27% 30.18 in 9.0 mi Calm Calm - N/A   Clear
1:45 PM 77.0 °F 39.2 °F 26% 30.17 in 10.0 mi WSW 3.5 mph - N/A   Clear
2:05 PM 77.0 °F 39.2 °F 26% 30.16 in 9.0 mi SW 5.8 mph - N/A   Clear
2:25 PM 77.0 °F 39.2 °F 26% 30.15 in 8.0 mi North 3.5 mph - N/A   Clear
2:45 PM 78.8 °F 41.0 °F 26% 30.14 in 10.0 mi WSW 6.9 mph - N/A   Clear
3:05 PM 78.8 °F 39.2 °F 24% 30.13 in 10.0 mi Calm Calm - N/A   Clear
3:25 PM 80.6 °F 41.0 °F 24% 30.12 in 9.0 mi WNW 3.5 mph - N/A   Clear
3:45 PM 80.6 °F 39.2 °F 23% 30.11 in 10.0 mi Calm Calm - N/A   Clear
4:05 PM 80.6 °F 39.2 °F 23% 30.10 in 9.0 mi West 8.1 mph - N/A   Clear
4:25 PM 80.6 °F 39.2 °F 23% 30.10 in 10.0 mi Calm Calm - N/A   Clear
4:45 PM 80.6 °F 41.0 °F 24% 30.09 in 10.0 mi Calm Calm - N/A   Clear
5:05 PM 80.6 °F 39.2 °F 23% 30.08 in 10.0 mi NW 4.6 mph - N/A   Clear
5:25 PM 80.6 °F 39.2 °F 23% 30.08 in 9.0 mi SSE 3.5 mph - N/A   Clear
5:45 PM 80.6 °F 41.0 °F 24% 30.07 in 10.0 mi WNW 4.6 mph - N/A   Clear
6:05 PM 80.6 °F 39.2 °F 23% 30.07 in 10.0 mi NW 4.6 mph - N/A   Clear
6:25 PM 78.8 °F 39.2 °F 24% 30.07 in 9.0 mi North 4.6 mph - N/A   Clear
6:45 PM 77.0 °F 41.0 °F 28% 30.06 in 10.0 mi NNW 4.6 mph - N/A   Clear
7:05 PM 75.2 °F 41.0 °F 29% 30.06 in 10.0 mi North 3.5 mph - N/A   Clear
7:25 PM 73.4 °F 42.8 °F 33% 30.05 in 10.0 mi North 5.8 mph - N/A   Clear
7:45 PM 71.6 °F 44.6 °F 38% 30.05 in 10.0 mi North 6.9 mph - N/A   Clear
8:05 PM 69.8 °F 42.8 °F 38% 30.05 in 10.0 mi NNE 4.6 mph - N/A   Clear
8:25 PM 69.8 °F 41.0 °F 35% 30.05 in 10.0 mi North 4.6 mph - N/A   Clear
8:45 PM 68.0 °F 41.0 °F 37% 30.06 in 10.0 mi North 3.5 mph - N/A   Clear
9:05 PM 69.8 °F 41.0 °F 35% 30.06 in 10.0 mi Calm Calm - N/A   Clear
9:25 PM 68.0 °F 41.0 °F 37% 30.06 in 10.0 mi Calm Calm - N/A   Clear
9:45 PM 68.0 °F 41.0 °F 37% 30.06 in 10.0 mi Calm Calm - N/A   Clear
10:05 PM 68.0 °F 42.8 °F 40% 30.06 in 10.0 mi Calm Calm - N/A   Clear
10:25 PM 66.2 °F 44.6 °F 46% 30.07 in 9.0 mi NNE 3.5 mph - N/A   Mostly Cloudy
10:45 PM 64.4 °F 46.4 °F 52% 30.07 in 10.0 mi NE 3.5 mph - N/A   Overcast
11:05 PM 68.0 °F 44.6 °F 43% 30.08 in 10.0 mi North 8.1 mph - N/A   Scattered Clouds
11:25 PM 64.4 °F 42.8 °F 45% 30.07 in 10.0 mi NNW 6.9 mph - N/A   Clear
11:45 PM 64.4 °F 42.8 °F 45% 30.07 in 10.0 mi North 4.6 mph - N/A   Clear